Location: Writing-on-Stone Provincial Park
(49.0825°N, 111.6163°W)
Time: 01:03:06
(UTC-06:00)

Amateur Radio Satellites - All Passes

Search period start: 24 October 2014 00:33
Search period end: 25 October 2014 00:33
Location: Writing-on-Stone Provincial Park, 49.0825°N, 111.6163°W

Satellite Date Start Highest point End Downlink Frequencies (MHz)
Time Altitude Azimuth
RS-15 24 Oct 00:35:30 00:46:28 76° 313° (NW) 00:57:32 29.354 - 29.394 USB, Beacon 29.352 USB
Oscar 10/S400 24 Oct 00:48:35 01:43:38 24° 230° (SW) 04:38:57 145.825 - 145.975 CW/USB, Beacon 145.810 USB
UOSAT-12 24 Oct 00:58:13 01:02:23 31° 243° (WSW) 01:06:29 437.025 FM, 437.400 FM
MaSat-1 24 Oct 01:04:18 01:08:23 75° 119° (ESE) 01:12:03 437.345 MHz
JAS-1B 24 Oct 01:26:23 01:29:13 13° 86° (E) 01:32:12 435.800 - 435.900 CW/SSB
Oscar 16 24 Oct 02:12:11 02:16:25 25° 93° (E) 02:20:36 437.025 USB, Beacon 2401.1428
AO-Echo 24 Oct 02:15:39 02:18:53 16° 87° (E) 02:22:06 ?
Uribyol 2 24 Oct 02:30:42 02:34:01 17° 89° (E) 02:37:20 436.500 FM
ITAMSAT 1 24 Oct 02:36:21 02:39:52 18° 89° (E) 02:43:21 435.822 SSB
MaSat-1 24 Oct 02:42:00 02:44:23 16° 316° (NW) 02:46:38 437.345 MHz
RS-15 24 Oct 02:50:49 03:00:50 39° 344° (NNW) 03:11:02 29.354 - 29.394 USB, Beacon 29.352 USB
Gurwin Techsat 1B 24 Oct 02:51:20 02:53:58 14° 86° (E) 02:56:34 435.225 FM
TMSAT-1 24 Oct 03:03:21 03:05:46 13° 85° (E) 03:08:09 436.925 FM
Oscar 19 24 Oct 03:05:17 03:10:25 69° 103° (ESE) 03:15:30 437.125 CW, 437.150 USB
JAS-1B 24 Oct 03:14:24 03:20:49 68° 103° (ESE) 03:28:27 435.800 - 435.900 CW/SSB
AO-27 24 Oct 03:20:47 03:25:46 42° 98° (E) 03:30:42 436.795 MHz FM
Oscar 16 24 Oct 03:51:05 03:56:03 51° 292° (WNW) 04:00:59 437.025 USB, Beacon 2401.1428
AO-Echo 24 Oct 03:52:58 03:58:17 84° 286° (WNW) 04:03:37 ?
Sapphire 24 Oct 03:56:49 04:00:27 19° 106° (ESE) 04:04:07 437.095 MHz 1200 baud AX-25 AFSK
Uribyol 2 24 Oct 04:08:53 04:14:07 77° 288° (WNW) 04:19:18 436.500 FM
ITAMSAT 1 24 Oct 04:14:41 04:19:56 74° 288° (WNW) 04:25:07 435.822 SSB
PCSat 24 Oct 04:18:13 04:22:50 29° 111° (ESE) 04:27:29 145.825 MHz
AO-7 24 Oct 04:19:40 04:25:24 20° 87° (E) 04:31:05 29.400 - 29.500 MHz
Gurwin Techsat 1B 24 Oct 04:29:22 04:34:44 86° 105° (ESE) 04:40:04 435.225 FM
TMSAT-1 24 Oct 04:41:10 04:46:31 83° 104° (ESE) 04:51:50 436.925 FM
Oscar 19 24 Oct 04:45:33 04:49:17 21° 302° (WNW) 04:53:01 437.125 CW, 437.150 USB
OPAL 24 Oct 04:47:06 04:51:52 40° 63° (ENE) 04:56:36 ?
AO-27 24 Oct 05:00:32 05:05:10 33° 297° (WNW) 05:09:47 436.795 MHz FM
JAS-1B 24 Oct 05:05:54 05:11:10 28° 301° (WNW) 05:17:07 435.800 - 435.900 CW/SSB
RS-15 24 Oct 05:06:31 05:16:40 40° 18° (NNE) 05:27:06 29.354 - 29.394 USB, Beacon 29.352 USB
AO-Echo 24 Oct 05:33:09 05:36:18 16° 305° (NW) 05:39:28 ?
Uosat F 24 Oct 05:37:17 05:42:08 44° 99° (E) 05:46:57 435.120 FM
Sapphire 24 Oct 05:37:48 05:43:14 81° 306° (NW) 05:48:42 437.095 MHz 1200 baud AX-25 AFSK
Uribyol 2 24 Oct 05:49:59 05:52:46 15° 307° (NW) 05:55:33 436.500 FM
JAS-2 24 Oct 05:50:03 05:56:29 28° 89° (E) 06:02:58 435.800 - 435.900 CW/SSB, 435.910 FM
ITAMSAT 1 24 Oct 05:55:55 05:58:33 14° 308° (NW) 06:01:11 435.822 SSB
PCSat 24 Oct 06:00:40 06:05:59 55° 311° (NW) 06:11:21 145.825 MHz
Gurwin Techsat 1B 24 Oct 06:10:33 06:14:03 18° 304° (NW) 06:17:32 435.225 FM
AO-7 24 Oct 06:11:05 06:19:28 81° 109° (ESE) 06:27:49 29.400 - 29.500 MHz
TMSAT-1 24 Oct 06:22:15 06:25:49 19° 304° (NW) 06:29:23 436.925 FM
OPAL 24 Oct 06:26:11 06:30:49 33° 262° (W) 06:35:25 ?
STRAND 1 24 Oct 06:30:17 06:34:59 38° 65° (ENE) 06:39:43 ?
Uosat F 24 Oct 07:16:24 07:20:46 30° 298° (WNW) 07:25:06 435.120 FM
Hamsat 24 Oct 07:18:58 07:23:10 70° 102° (ESE) 07:27:21 145.90 MHz
RS-15 24 Oct 07:19:49 07:30:57 78° 48° (NE) 07:42:33 29.354 - 29.394 USB, Beacon 29.352 USB
Sapphire 24 Oct 07:23:16 07:27:30 23° 328° (NNW) 07:31:45 437.095 MHz 1200 baud AX-25 AFSK
SO-67 24 Oct 07:30:19 07:31:40 12° 89° (E) 07:33:00 435.3500 MHz FM
JAS-2 24 Oct 07:34:27 07:42:08 78° 288° (WNW) 07:49:59 435.800 - 435.900 CW/SSB, 435.910 FM
PCSat 24 Oct 07:47:00 07:50:38 18° 334° (NNW) 07:54:17 145.825 MHz
AO-7 24 Oct 08:04:35 08:11:31 31° 310° (NW) 08:18:28 29.400 - 29.500 MHz
STRAND 1 24 Oct 08:09:32 08:14:12 35° 264° (W) 08:18:55 ?
Saudisat 1A 24 Oct 08:17:46 08:21:38 31° 118° (ESE) 08:25:32 436.775 MHz
Hamsat 24 Oct 08:56:12 08:58:38 15° 300° (WNW) 09:01:03 145.90 MHz
SO-67 24 Oct 09:01:35 09:04:59 54° 287° (WNW) 09:08:21 435.3500 MHz FM
Sapphire 24 Oct 09:11:07 09:13:04 12° 354° (N) 09:15:00 437.095 MHz 1200 baud AX-25 AFSK
MaSat-1 24 Oct 09:11:29 09:14:01 30° 52° (NE) 09:16:20 437.345 MHz
JAS-2 24 Oct 09:20:34 09:26:06 23° 308° (NW) 09:31:47 435.800 - 435.900 CW/SSB, 435.910 FM
RS-15 24 Oct 09:32:44 09:42:29 37° 252° (WSW) 09:52:37 29.354 - 29.394 USB, Beacon 29.352 USB
HO-68 24 Oct 09:33:54 09:40:01 29° 93° (E) 09:46:05 435.675 MHz FM
PCSat 24 Oct 09:34:38 09:36:24 11° 1° (N) 09:38:09 145.825 MHz
Saudisat 1A 24 Oct 09:56:54 10:01:06 43° 318° (NW) 10:05:20 436.775 MHz
AO-7 24 Oct 09:59:54 10:01:42 11° 336° (NNW) 10:03:29 29.400 - 29.500 MHz
UKube-1 24 Oct 10:26:00 10:29:34 24° 94° (E) 10:33:05 145.840 MHz, 145.915 MHz
MaSat-1 24 Oct 10:48:13 10:49:17 12° 254° (WSW) 10:50:20 437.345 MHz
Sapphire 24 Oct 10:55:47 10:58:56 15° 21° (NNE) 11:02:05 437.095 MHz 1200 baud AX-25 AFSK
FUNcube-1 24 Oct 11:04:31 11:08:03 24° 93° (E) 11:11:30 145.950 - 145.970 MHz USB
Oscar 11 24 Oct 11:07:35 11:11:51 58° 101° (E) 11:16:06 145.825 FM, Beacon 2401.500 USB
PCSat 24 Oct 11:18:19 11:22:07 19° 27° (NNE) 11:25:54 145.825 MHz
HO-68 24 Oct 11:21:07 11:28:16 68° 293° (WNW) 11:35:22 435.675 MHz FM
Saudisat 1A 24 Oct 11:39:17 11:41:47 15° 340° (NNW) 11:44:17 436.775 MHz
ZACube-1 24 Oct 11:55:25 11:59:45 79° 103° (ESE) 12:03:57 437.345 MHz
Oscar 16 24 Oct 11:58:45 11:59:40 10° 49° (NE) 12:00:35 437.025 USB, Beacon 2401.1428
UKube-1 24 Oct 12:01:47 12:05:55 42° 292° (WNW) 12:10:01 145.840 MHz, 145.915 MHz
JAS-1B 24 Oct 12:18:13 12:21:22 15° 50° (NE) 12:24:31 435.800 - 435.900 CW/SSB
KITSAT 1 24 Oct 12:34:29 12:41:46 39° 111° (ESE) 12:49:03 435.175 FM
Sapphire 24 Oct 12:38:41 12:43:52 42° 45° (NE) 12:49:00 437.095 MHz 1200 baud AX-25 AFSK
FUNcube-1 24 Oct 12:40:35 12:44:34 38° 292° (WNW) 12:48:28 145.950 - 145.970 MHz USB
Oscar 11 24 Oct 12:44:40 12:47:39 19° 299° (WNW) 12:50:37 145.825 FM, Beacon 2401.500 USB
Oscar 19 24 Oct 12:48:26 12:52:32 25° 60° (ENE) 12:56:37 437.125 CW, 437.150 USB
PCSat 24 Oct 13:01:15 13:06:40 61° 50° (NE) 13:12:01 145.825 MHz
AO-27 24 Oct 13:06:02 13:09:22 17° 55° (NE) 13:12:42 436.795 MHz FM
HO-68 24 Oct 13:10:09 13:14:45 19° 315° (NW) 13:19:21 435.675 MHz FM
Saudisat 1A 24 Oct 13:21:57 13:23:13 11° 5° (N) 13:24:30 436.775 MHz
AO-Echo 24 Oct 13:32:15 13:36:30 30° 63° (ENE) 13:40:53 ?
Oscar 16 24 Oct 13:32:55 13:37:57 55° 69° (ENE) 13:42:59 437.025 USB, Beacon 2401.1428
ZACube-1 24 Oct 13:33:19 13:35:33 14° 303° (WNW) 13:37:46 437.345 MHz
AO-7 24 Oct 13:35:50 13:39:40 14° 32° (NNE) 13:43:30 29.400 - 29.500 MHz
SO-50 24 Oct 13:46:54 13:51:09 41° 120° (ESE) 13:55:31 436.795 FM
Uribyol 2 24 Oct 13:52:02 13:56:50 39° 65° (ENE) 14:01:40 436.500 FM
ITAMSAT 1 24 Oct 13:57:54 14:02:45 41° 66° (ENE) 14:07:37 435.822 SSB
JAS-1B 24 Oct 14:05:20 14:11:13 81° 72° (ENE) 14:16:55 435.800 - 435.900 CW/SSB
Gurwin Techsat 1B 24 Oct 14:15:39 14:20:20 33° 63° (ENE) 14:25:02 435.225 FM
ISS 24 Oct 14:19:44 14:22:53 40° 149° (SSE) 14:26:03 145.800 FM
Sapphire 24 Oct 14:22:14 14:27:19 41° 245° (WSW) 14:32:22 437.095 MHz 1200 baud AX-25 AFSK
Oscar 19 24 Oct 14:26:28 14:31:32 57° 259° (W) 14:36:37 437.125 CW, 437.150 USB
TMSAT-1 24 Oct 14:27:14 14:31:50 31° 63° (ENE) 14:36:28 436.925 FM
KITSAT 1 24 Oct 14:28:48 14:36:49 64° 313° (NW) 14:44:53 435.175 FM
AO-27 24 Oct 14:42:58 14:48:12 88° 255° (WSW) 14:53:29 436.795 MHz FM
PCSat 24 Oct 14:45:16 14:49:43 26° 250° (WSW) 14:54:09 145.825 MHz
Saudisat 1A 24 Oct 15:01:03 15:04:27 21° 29° (NNE) 15:07:50 436.775 MHz
AO-Echo 24 Oct 15:10:26 15:15:06 43° 262° (W) 15:19:58 ?
UOSAT-12 24 Oct 15:12:52 15:16:56 31° 117° (ESE) 15:21:04 437.025 FM, 437.400 FM
Oscar 16 24 Oct 15:13:32 15:17:38 24° 268° (W) 15:21:45 437.025 USB, Beacon 2401.1428
Uosat F 24 Oct 15:18:21 15:21:26 17° 55° (NE) 15:24:32 435.120 FM
AO-7 24 Oct 15:22:44 15:30:19 42° 56° (NE) 15:37:55 29.400 - 29.500 MHz
SO-50 24 Oct 15:27:31 15:31:46 37° 321° (NW) 15:36:09 436.795 FM
Uribyol 2 24 Oct 15:31:36 15:36:21 35° 264° (W) 15:41:08 436.500 FM
ITAMSAT 1 24 Oct 15:37:39 15:42:19 33° 264° (W) 15:47:02 435.822 SSB
Gurwin Techsat 1B 24 Oct 15:55:10 16:00:12 43° 262° (W) 16:05:16 435.225 FM
ISS 24 Oct 15:56:11 15:59:31 64° 348° (NNW) 16:02:51 145.800 FM
JAS-1B 24 Oct 15:59:18 16:02:44 16° 272° (W) 16:06:07 435.800 - 435.900 CW/SSB
TMSAT-1 24 Oct 16:06:33 16:11:37 45° 262° (W) 16:16:43 436.925 FM
JAS-2 24 Oct 16:08:38 16:12:50 19° 48° (NE) 16:17:20 435.800 - 435.900 CW/SSB, 435.910 FM
AO-27 24 Oct 16:25:52 16:28:29 14° 273° (W) 16:31:07 436.795 MHz FM
KITSAT 1 24 Oct 16:27:06 16:33:53 28° 340° (NNW) 16:40:42 435.175 FM
Saudisat 1A 24 Oct 16:40:11 16:44:38 86° 50° (NE) 16:49:04 436.775 MHz
Hamsat 24 Oct 16:43:39 16:44:55 11° 57° (ENE) 16:46:11 145.90 MHz
UOSAT-12 24 Oct 16:52:24 16:56:56 48° 317° (NW) 17:01:33 437.025 FM, 437.400 FM
Uosat F 24 Oct 16:54:31 16:59:33 88° 255° (WSW) 17:04:39 435.120 FM
SO-50 24 Oct 17:11:00 17:13:39 15° 345° (NNW) 17:16:20 436.795 FM
AO-7 24 Oct 17:14:48 17:22:54 57° 257° (WSW) 17:31:05 29.400 - 29.500 MHz
ISS 24 Oct 17:33:09 17:36:28 57° 8° (N) 17:39:46 145.800 FM
JAS-2 24 Oct 17:50:37 17:56:40 76° 71° (ENE) 18:03:36 435.800 - 435.900 CW/SSB, 435.910 FM
Hamsat 24 Oct 18:15:58 18:20:11 82° 75° (ENE) 18:24:23 145.90 MHz
Saudisat 1A 24 Oct 18:21:13 18:23:35 14° 249° (WSW) 18:25:57 436.775 MHz
KITSAT 1 24 Oct 18:25:50 18:32:13 24° 9° (N) 18:38:35 435.175 FM
OPAL 24 Oct 18:31:21 18:36:07 44° 101° (E) 18:40:50 ?
UOSAT-12 24 Oct 18:35:08 18:38:12 17° 340° (NNW) 18:41:16 437.025 FM, 437.400 FM
Uosat F 24 Oct 18:36:44 18:39:06 13° 273° (W) 18:41:28 435.120 FM
SO-50 24 Oct 18:53:53 18:56:11 13° 10° (N) 18:58:30 436.795 FM
ISS 24 Oct 19:09:55 19:13:12 56° 207° (SSW) 19:16:29 145.800 FM
AO-7 24 Oct 19:14:53 19:17:37 12° 279° (W) 19:20:22 29.400 - 29.500 MHz
SO-67 24 Oct 19:37:39 19:41:05 90° 59° (ENE) 19:44:33 435.3500 MHz FM
JAS-2 24 Oct 19:37:59 19:42:38 22° 275° (W) 19:47:43 435.800 - 435.900 CW/SSB, 435.910 FM
Hamsat 24 Oct 19:55:23 19:56:43 11° 273° (W) 19:58:03 145.90 MHz
HO-68 24 Oct 20:06:56 20:13:15 35° 57° (ENE) 20:19:36 435.675 MHz FM
OPAL 24 Oct 20:10:34 20:14:51 30° 300° (WNW) 20:19:06 ?
STRAND 1 24 Oct 20:15:18 20:20:25 59° 101° (ESE) 20:25:29 ?
UOSAT-12 24 Oct 20:18:13 20:20:15 13° 4° (N) 20:22:17 437.025 FM, 437.400 FM
KITSAT 1 24 Oct 20:22:12 20:29:54 45° 38° (NE) 20:37:34 435.175 FM
Oscar 11 24 Oct 20:34:02 20:35:12 11° 55° (NE) 20:36:23 145.825 FM, Beacon 2401.500 USB
SO-50 24 Oct 20:34:10 20:38:18 28° 33° (NNE) 20:42:28 436.795 FM
ISS 24 Oct 20:48:02 20:49:19 12° 225° (SW) 20:50:35 145.800 FM
ZACube-1 24 Oct 21:21:24 21:24:04 16° 59° (ENE) 21:26:43 437.345 MHz
UKube-1 24 Oct 21:25:09 21:29:06 35° 66° (ENE) 21:33:05 145.840 MHz, 145.915 MHz
RS-15 24 Oct 21:50:39 21:59:25 29° 104° (ESE) 22:08:07 29.354 - 29.394 USB, Beacon 29.352 USB
HO-68 24 Oct 21:53:35 22:00:39 60° 258° (WSW) 22:07:46 435.675 MHz FM
STRAND 1 24 Oct 21:55:11 21:59:15 24° 300° (WNW) 22:03:18 ?
UOSAT-12 24 Oct 21:58:23 22:02:07 22° 29° (NNE) 22:05:50 437.025 FM, 437.400 FM
FUNcube-1 24 Oct 22:04:21 22:08:29 35° 67° (ENE) 22:12:34 145.950 - 145.970 MHz USB
Oscar 11 24 Oct 22:06:19 22:10:38 76° 74° (ENE) 22:14:58 145.825 FM, Beacon 2401.500 USB
SO-50 24 Oct 22:14:29 22:19:18 71° 234° (SW) 22:24:10 436.795 FM
KITSAT 1 24 Oct 22:17:46 22:25:43 63° 241° (WSW) 22:33:38 435.175 FM
ZACube-1 24 Oct 22:55:19 22:59:55 79° 257° (WSW) 23:04:27 437.345 MHz
UKube-1 24 Oct 23:01:35 23:05:21 28° 265° (W) 23:09:09 145.840 MHz, 145.915 MHz
UOSAT-12 24 Oct 23:38:11 23:42:58 84° 50° (NE) 23:47:39 437.025 FM, 437.400 FM
FUNcube-1 24 Oct 23:40:51 23:44:53 30° 265° (W) 23:48:53 145.950 - 145.970 MHz USB
Oscar 11 24 Oct 23:45:19 23:47:21 13° 272° (W) 23:49:24 145.825 FM, Beacon 2401.500 USB
HO-68 24 Oct 23:47:37 23:49:54 12° 278° (W) 23:52:12 435.675 MHz FM
SO-50 24 Oct 23:57:26 23:59:03 12° 252° (WSW) 00:00:40 436.795 FM
RS-15 24 Oct 23:59:23 00:10:23 89° 308° (NW) 00:21:26 29.354 - 29.394 USB, Beacon 29.352 USB
KITSAT 1 25 Oct 00:15:40 00:19:31 14° 262° (W) 00:23:22 435.175 FM
